Weather History for PAFA - August, 2013

Change the Weather History Date:

Wednesday, August 14, 2013

  Actual Average Record
Temperature  
Mean Temperature 63 °F 57 °F  
Max Temperature 69 °F 67 °F 89 °F (1926)
Min Temperature 56 °F 47 °F 27 °F (1924)
Degree Days  
Heating Degree Days 2 8  
Month to date heating degree days 13 95  
Since 1 June heating degree days 153 363  
Since 1 July heating degree days 82 203  
Cooling Degree Days 0 0  
Month to date cooling degree days 24 0  
Year to date cooling degree days 226 55  
Since 1 June cooling degree days 213 54  
Growing Degree Days 12 (Base 50)    
Moisture  
Dew Point 52 °F    
Average Humidity 69    
Maximum Humidity 90    
Minimum Humidity 40    
Precipitation  
Precipitation T in 0.06 in 0.64 in (1934)
Month to date precipitation 0.01 0.92  
Year to date precipitation 3.79 6.61  
Snow  
Snow 0.00 in 0.00 in 0.00 in (2002)
Month to date snowfall 0.0 0.0  
Since 1 June snowfall 0.0 0.0  
Since 1 July snowfall 0.0 0.0  
Snow Depth 0.00 in    
Sea Level Pressure  
Sea Level Pressure 29.86 in    
Wind  
Wind Speed 4 mph (WSW)    
Max Wind Speed 14 mph    
Max Gust Speed -    
Visibility 8 miles    
Events      
T = Trace of Precipitation, MM = Missing Value Source: NWS Daily Summary

Daily Weather History Graph

Daily Weather History Graph

Search for Another Location

Airport or City:

Trip Planner

Search our weather history database for the weather conditions in past years. The results will help you decide how hot, cold, wet, or windy it might be!

Date:

Astronomy

Aug. 14, 2013 Rise Set
Actual Time 5:36 AM AKDT 10:13 PM AKDT
Civil Twilight 4:26 AM AKDT 11:21 PM AKDT
Nautical Twilight 2:28 AM AKDT 1:23 AM AKDT
Astronomical Twilight Sun does not rise Sun does not rise
Moon 5:14 PM AKDT (8/14) 11:15 PM AKDT (8/14)
Length of Visible Light 18h 54m
Length of Day
16h 37m
First Quarter, 54% of the Moon is Illuminated
Aug 14
First Quarter
Aug 20
Full
Aug 28
Last Quarter
Sep 5
New
Sep 12
First Quarter

Hourly Weather History & Observations

Time (AKDT) Temp. Dew Point Humidity Pressure Visibility Wind Dir Wind Speed Gust Speed Precip Events Conditions
12:53 AM 60.1 °F 57.0 °F 90% 29.81 in 7.0 mi Calm Calm - N/A   Mostly Cloudy
1:53 AM 60.1 °F 55.9 °F 86% 29.81 in 6.0 mi Calm Calm - N/A   Smoke
2:53 AM 57.9 °F 55.0 °F 90% 29.81 in 6.0 mi Calm Calm - N/A   Smoke
3:53 AM 57.9 °F 54.0 °F 87% 29.81 in 6.0 mi NNE 3.5 mph - N/A   Smoke
4:53 AM 57.0 °F 54.0 °F 89% 29.82 in 6.0 mi Calm Calm - N/A   Smoke
5:53 AM 57.0 °F 53.1 °F 87% 29.83 in 5.0 mi NNW 3.5 mph - N/A   Smoke
6:53 AM 55.9 °F 53.1 °F 90% 29.86 in 4.0 mi SW 4.6 mph - N/A   Smoke
7:53 AM 60.1 °F 54.0 °F 80% 29.86 in 4.0 mi SW 3.5 mph - N/A   Smoke
8:53 AM 62.1 °F 54.0 °F 75% 29.87 in 6.0 mi Variable 3.5 mph - N/A   Smoke
9:53 AM 64.0 °F 52.0 °F 65% 29.88 in 10.0 mi West 13.8 mph - N/A   Mostly Cloudy
10:53 AM 63.0 °F 52.0 °F 67% 29.90 in 10.0 mi West 12.7 mph - N/A   Mostly Cloudy
11:53 AM 64.0 °F 52.0 °F 65% 29.90 in 10.0 mi West 10.4 mph - N/A   Mostly Cloudy
12:53 PM 64.9 °F 53.1 °F 65% 29.90 in 10.0 mi West 9.2 mph - N/A   Mostly Cloudy
1:53 PM 68.0 °F 53.1 °F 59% 29.90 in 10.0 mi WSW 9.2 mph - N/A   Mostly Cloudy
2:53 PM 66.9 °F 52.0 °F 59% 29.88 in 10.0 mi WSW 9.2 mph - N/A   Mostly Cloudy
3:53 PM 69.1 °F 50.0 °F 51% 29.88 in 10.0 mi West 10.4 mph - N/A   Mostly Cloudy
4:53 PM 68.0 °F 50.0 °F 52% 29.86 in 10.0 mi WNW 6.9 mph - N/A   Mostly Cloudy
5:53 PM 68.0 °F 51.1 °F 55% 29.86 in 10.0 mi West 5.8 mph - N/A   Mostly Cloudy
6:53 PM 66.9 °F 52.0 °F 59% 29.85 in 10.0 mi SW 4.6 mph - N/A   Mostly Cloudy
7:53 PM 64.9 °F 51.1 °F 61% 29.84 in 10.0 mi SSW 5.8 mph - N/A   Mostly Cloudy
8:53 PM 64.0 °F 51.1 °F 63% 29.85 in 10.0 mi SSW 4.6 mph - N/A   Mostly Cloudy
9:53 PM 63.0 °F 51.1 °F 65% 29.85 in 10.0 mi SSW 5.8 mph - N/A   Mostly Cloudy
10:53 PM 61.0 °F 50.0 °F 67% 29.86 in 7.0 mi SW 3.5 mph - N/A   Mostly Cloudy
11:53 PM 59.0 °F 51.1 °F 75% 29.86 in 10.0 mi Calm Calm - N/A   Mostly Cloudy